Total_Precipitation_Accumulation
0.03 0.08 0.17 0.32 0.36 0.54 0.50 0.25 0.10 0.06 0.03 0.03 0.02 0.00 0.00 0.00 0.00 0.00 0.00 0.00 0.00 0.00 0.00 0.00 0.00 0.00 0.00 0.00 0.00 0.00 0.00 0.00 0.00 0.00 0.00 0.00 0.00 0.00 0.00 0.00 0.00 0.00 0.00
0.02 0.04 0.16 0.25 0.38 0.46 0.32 0.30 0.12 0.07 0.13 0.16 0.16 0.10 0.00 0.00 0.00 0.00 0.00 0.00 0.00 0.00 0.00 0.00 0.00 0.00 0.00 0.00 0.00 0.00 0.00 0.00 0.00 0.00 0.00 0.00 0.00 0.00 0.00 0.00 0.00 0.00 0.00
0.02 0.05 0.13 0.19 0.32 0.38 0.42 0.39 0.21 0.13 0.17 0.19 0.19 0.15 0.03 0.01 0.01 0.00 0.00 0.00 0.00 0.00 0.00 0.00 0.00 0.00 0.00 0.00 0.00 0.00 0.00 0.00 0.00 0.00 0.00 0.00 0.00 0.00 0.00 0.00 0.00 0.00 0.00
0.02 0.05 0.09 0.15 0.27 0.31 0.34 0.40 0.34 0.30 0.20 0.32 0.18 0.11 0.03 0.00 0.00 0.00 0.00 0.00 0.00 0.00 0.00 0.00 0.00 0.00 0.00 0.00 0.00 0.00 0.00 0.00 0.00 0.00 0.00 0.00 0.00 0.00 0.00 0.00 0.00 0.00 0.00
0.03 0.05 0.08 0.11 0.15 0.31 0.28 0.36 0.42 0.39 0.27 0.28 0.20 0.20 0.12 0.01 0.00 0.01 0.00 0.00 0.00 0.00 0.00 0.00 0.00 0.00 0.00 0.00 0.00 0.00 0.00 0.00 0.00 0.00 0.00 0.00 0.00 0.00 0.00 0.00 0.00 0.00 0.00
0.03 0.05 0.06 0.08 0.12 0.24 0.35 0.32 0.53 0.47 0.43 0.33 0.17 0.18 0.19 0.03 0.00 0.01 0.00 0.00 0.00 0.00 0.00 0.00 0.01 0.01 0.00 0.00 0.00 0.00 0.00 0.00 0.00 0.00 0.00 0.00 0.00 0.00 0.00 0.00 0.00 0.00 0.00
0.03 0.05 0.05 0.09 0.15 0.19 0.31 0.36 0.44 0.48 0.44 0.47 0.25 0.14 0.12 0.10 0.01 0.01 0.00 0.01 0.01 0.00 0.00 0.00 0.00 0.02 0.01 0.00 0.00 0.00 0.00 0.00 0.00 0.00 0.00 0.00 0.00 0.00 0.00 0.00 0.00 0.00 0.00
0.03 0.05 0.05 0.07 0.14 0.16 0.26 0.36 0.44 0.40 0.46 0.54 0.41 0.19 0.14 0.11 0.06 0.02 0.02 0.03 0.03 0.03 0.05 0.03 0.03 0.06 0.05 0.01 0.00 0.00 0.00 0.00 0.00 0.00 0.00 0.00 0.00 0.00 0.00 0.00 0.00 0.00 0.00
0.06 0.06 0.07 0.08 0.15 0.15 0.15 0.32 0.45 0.41 0.39 0.37 0.56 0.49 0.27 0.14 0.10 0.07 0.06 0.06 0.06 0.07 0.07 0.05 0.03 0.04 0.03 0.02 0.00 0.00 0.00 0.00 0.00 0.00 0.00 0.00 0.00 0.00 0.00 0.00 0.00 0.00 0.00
0.06 0.08 0.06 0.11 0.11 0.21 0.17 0.20 0.40 0.41 0.35 0.34 0.51 0.72 0.70 0.34 0.13 0.09 0.06 0.03 0.03 0.05 0.05 0.03 0.02 0.04 0.08 0.02 0.00 0.00 0.00 0.00 0.00 0.00 0.00 0.00 0.00 0.00 0.00 0.00 0.00 0.00 0.00
0.07 0.11 0.09 0.13 0.16 0.14 0.23 0.17 0.28 0.53 0.52 0.42 0.45 0.63 0.67 0.66 0.53 0.22 0.06 0.03 0.01 0.02 0.03 0.03 0.02 0.03 0.06 0.03 0.00 0.00 0.00 0.00 0.00 0.00 0.00 0.00 0.00 0.00 0.00 0.00 0.00 0.00 0.00
0.09 0.11 0.13 0.12 0.22 0.19 0.14 0.17 0.14 0.32 0.51 0.51 0.49 0.59 0.49 0.43 0.35 0.46 0.20 0.05 0.03 0.01 0.02 0.02 0.02 0.01 0.03 0.04 0.01 0.00 0.00 0.00 0.00 0.00 0.00 0.00 0.00 0.00 0.00 0.00 0.00 0.00 0.00
0.09 0.09 0.12 0.12 0.21 0.28 0.22 0.13 0.15 0.15 0.30 0.55 0.51 0.49 0.66 0.59 0.42 0.27 0.24 0.07 0.03 0.04 0.03 0.01 0.02 0.01 0.00 0.00 0.01 0.01 0.00 0.00 0.00 0.00 0.00 0.00 0.00 0.00 0.00 0.00 0.00 0.00 0.00
0.11 0.10 0.11 0.17 0.18 0.31 0.31 0.24 0.14 0.21 0.17 0.28 0.54 0.51 0.51 0.53 0.59 0.33 0.25 0.11 0.03 0.03 0.02 0.01 0.01 0.01 0.00 0.00 0.00 0.00 0.00 0.00 0.00 0.00 0.00 0.00 0.00 0.00 0.00 0.00 0.00 0.00 0.00
0.10 0.12 0.12 0.16 0.24 0.19 0.32 0.36 0.30 0.20 0.28 0.22 0.27 0.39 0.52 0.50 0.43 0.37 0.16 0.09 0.06 0.05 0.01 0.00 0.00 0.00 0.00 0.00 0.00 0.00 0.00 0.00 0.00 0.00 0.00 0.00 0.00 0.00 0.00 0.01 0.01 0.01 0.01
0.06 0.08 0.10 0.11 0.16 0.24 0.19 0.34 0.41 0.37 0.27 0.30 0.30 0.30 0.25 0.46 0.55 0.44 0.25 0.08 0.04 0.05 0.08 0.01 0.00 0.00 0.00 0.01 0.01 0.00 0.00 0.00 0.00 0.00 0.00 0.00 0.00 0.00 0.00 0.00 0.00 0.01 0.01
0.04 0.04 0.06 0.06 0.07 0.14 0.21 0.20 0.30 0.42 0.39 0.31 0.33 0.29 0.29 0.22 0.34 0.53 0.46 0.18 0.06 0.01 0.00 0.00 0.00 0.00 0.00 0.01 0.01 0.01 0.00 0.00 0.00 0.00 0.00 0.00 0.00 0.00 0.00 0.00 0.00 0.00 0.00
0.04 0.03 0.02 0.01 0.01 0.02 0.06 0.13 0.15 0.22 0.36 0.38 0.34 0.35 0.29 0.29 0.28 0.24 0.37 0.43 0.26 0.08 0.03 0.01 0.00 0.00 0.00 0.00 0.00 0.00 0.00 0.00 0.00 0.00 0.00 0.00 0.01 0.00 0.00 0.00 0.00 0.00 0.00
0.02 0.02 0.01 0.00 0.00 0.00 0.01 0.02 0.06 0.10 0.16 0.27 0.33 0.32 0.32 0.29 0.23 0.23 0.16 0.19 0.24 0.15 0.06 0.04 0.03 0.00 0.00 0.00 0.00 0.00 0.00 0.00 0.00 0.00 0.01 0.02 0.02 0.01 0.01 0.01 0.00 0.00 0.00
0.00 0.00 0.00 0.00 0.00 0.00 0.00 0.00 0.01 0.02 0.05 0.09 0.16 0.20 0.23 0.24 0.24 0.21 0.21 0.16 0.13 0.15 0.11 0.06 0.04 0.02 0.00 0.00 0.00 0.00 0.00 0.00 0.00 0.00 0.00 0.02 0.02 0.02 0.02 0.01 0.01 0.01 0.00
0.00 0.00 0.00 0.00 0.00 0.00 0.00 0.00 0.00 0.00 0.01 0.02 0.04 0.09 0.12 0.14 0.14 0.16 0.15 0.16 0.15 0.13 0.14 0.13 0.10 0.04 0.01 0.00 0.00 0.00 0.00 0.00 0.01 0.01 0.01 0.01 0.03 0.01 0.01 0.02 0.01 0.03 0.02
0.00 0.00 0.00 0.00 0.00 0.00 0.00 0.00 0.00 0.00 0.00 0.00 0.01 0.04 0.05 0.07 0.08 0.09 0.10 0.11 0.12 0.12 0.15 0.16 0.12 0.06 0.03 0.01 0.01 0.00 0.00 0.01 0.00 0.00 0.00 0.01 0.03 0.01 0.01 0.01 0.01 0.02 0.02
0.00 0.00 0.00 0.00 0.00 0.00 0.00 0.00 0.00 0.00 0.00 0.00 0.00 0.01 0.02 0.02 0.03 0.04 0.05 0.07 0.09 0.12 0.11 0.13 0.14 0.10 0.05 0.02 0.00 0.00 0.00 0.00 0.00 0.00 0.01 0.02 0.02 0.01 0.00 0.01 0.01 0.01 0.00
0.00 0.00 0.00 0.00 0.00 0.00 0.00 0.00 0.00 0.00 0.00 0.00 0.00 0.00 0.00 0.01 0.01 0.01 0.01 0.01 0.03 0.06 0.08 0.09 0.08 0.08 0.07 0.03 0.01 0.00 0.00 0.00 0.00 0.00 0.00 0.00 0.00 0.00 0.00 0.00 0.00 0.00 0.00
0.00 0.00 0.00 0.00 0.00 0.00 0.00 0.00 0.00 0.00 0.00 0.00 0.00 0.00 0.00 0.00 0.00 0.00 0.00 0.00 0.00 0.00 0.01 0.01 0.02 0.02 0.02 0.01 0.00 0.00 0.00 0.00 0.00 0.00 0.00 0.00 0.00 0.00 0.00 0.00 0.00 0.00 0.01
0.00 0.00 0.00 0.00 0.00 0.00 0.00 0.00 0.00 0.00 0.00 0.00 0.00 0.00 0.00 0.00 0.00 0.00 0.00 0.00 0.00 0.00 0.00 0.00 0.00 0.00 0.00 0.00 0.00 0.00 0.00 0.00 0.00 0.00 0.00 0.00 0.00 0.00 0.00 0.00 0.00 0.00 0.00